Powrót do katalogu

STARLINK-36443

AktywnyŁącznośćVLEO
NORAD 67431·PAYLOAD·🇺🇸 United States

Wystrzelony Jan 12, 2026 z Cape Canaveral Space Force Station

Loading…

Następne Przeloty (najbliższe 24 godziny)

TLE

ŚwieżeSource: CelesTrak SupGP

Epoka: Sep 15, 2026, 04:20 UTC

1 67431C 26005AD  26258.18104167 -.00023644  00000+0 -85661-3 0  2582
2 67431  42.9995 247.5911 0001191 268.0858 302.1408 15.27581632    18

Śledź STARLINK-36443 w czasie rzeczywistym z AllMySat

Download on the App Store